Location: Unspecified
(49.2170°N, 0.0000°E)
Time: 16:35:29
(UTC+00:00)

Envisat - Pass Details

Date: 03 December 2020
Orbit: 764 x 766 km, 98.1° (Epoch: 20 January)

Event Time Altitude Azimuth Distance (km) Brightness Sun altitude
Rises 17:01:18 0° 169° (S) 3,221 6.4 -9.1°
Reaches altitude 10° 17:03:36 10° 172° (S) 2,299 5.7 -9.5°
Maximum altitude 17:08:40 74° 257° (WSW) 801 3.3 -10.2°
Drops below altitude 10° 17:13:46 10° 343° (NNW) 2,316 5.5 -11.0°
Sets 17:16:06 0° 345° (NNW) 3,247 6.2 -11.4°
